[[{"header":{"parameterUnit":"m.s-1","parameterCategory":1,"la1":30.2991,"la2":30.254,"lo1":-89.0895,"lo2":-89.0444,"dy":0.0017,"dx":0.0017,"nx":28,"ny":28,"refTime":"2024-08-26T09:00:00:Z","depth":0,"parameterNumber":2,"parameterNumberName":"U-component_of_WINDS"},"data":[0,0,0,0,0,0,0,0,0,0,0,0,0,0,0,0,0,0,0,0,0,0,0,0,0,0,0,0,0,0,0,0,0,0,0,0,0,0,0,0,0,0,0,0,0,0,0,0,0,0,0,0,0,0,0,0,0,0,-1.8975,-1.8974,0,-1.8952,-1.8952,-1.8952,-1.8884,-1.8883,-1.8881,-1.888,-1.8859,-1.886,-1.8861,0,0,0,0,0,0,0,0,0,0,0,0,0,-1.8964,-1.8965,-1.8975,-1.8974,-1.8974,-1.8952,-1.8952,-1.8952,-1.8885,-1.8883,-1.8881,-1.8879,-1.8859,-1.886,-1.8861,0,0,0,0,0,0,0,0,0,0,0,0,0,-1.8958,-1.8965,-1.8975,-1.8938,-1.8934,-1.8952,-1.8952,-1.8952,-1.8885,-1.8883,-1.8881,-1.8879,-1.8859,-1.886,-1.8861,-1.8913,0,0,-1.8865,-1.8865,0,0,0,0,0,0,0,0,-1.8959,-1.8959,-1.8944,-1.8941,-1.8937,-1.8919,-1.8941,-1.8939,-1.8886,-1.8904,-1.888,-1.8877,-1.8881,-1.888,-1.8881,-1.8912,-1.8911,-1.8865,-1.8866,-1.8866,-1.8867,0,0,0,0,0,0,0,-1.8959,-1.8959,-1.8966,-1.8944,-1.8939,-1.8924,-1.8921,-1.894,-1.8905,-1.8902,-1.8897,-1.8895,-1.8879,-1.888,-1.888,-1.8911,-1.8865,-1.8866,-1.8867,-1.8867,-1.899,-1.8992,0,0,0,0,0,0,-1.8964,-1.896,-1.8966,-1.8965,-1.8942,-1.8926,-1.8922,-1.8927,-1.8905,-1.8899,-1.8897,-1.8892,-1.8879,-1.8879,-1.8879,-1.8942,-1.8866,-1.8868,-1.8868,-1.8987,-1.899,-1.8993,0,0,0,0,0,0,-1.8964,-1.8965,-1.8967,-1.8961,-1.896,-1.8929,-1.8934,-1.8928,-1.8929,-1.8901,-1.8895,-1.8905,-1.8877,-1.8877,-1.8906,-1.8941,-1.8868,-1.8869,-1.8984,-1.8988,-1.8992,-1.9068,0,0,0,0,0,0,-1.8964,-1.8966,-1.8984,-1.8962,-1.8961,-1.8994,-1.8936,-1.8929,-1.8931,-1.8924,-1.8907,-1.8902,-1.8875,-1.8905,-1.8908,-1.8941,-1.887,-1.8981,-1.8986,-1.899,-1.9062,-1.9073,-1.9083,0,0,0,0,0,-1.8964,-1.9006,-1.8985,-1.8986,-1.8983,-1.8996,-1.8995,-1.8964,-1.8934,-1.8953,-1.8936,-1.8902,-1.8936,-1.8908,-1.8911,-1.8945,-1.8979,-1.8985,-1.899,-1.9057,-1.9071,-1.9083,0,0,0,0,0,0,-1.9032,-1.9002,-1.8979,-1.9014,-1.9008,-1.8984,-1.9007,-1.8979,-1.8982,-1.8975,-1.8937,-1.8934,-1.8969,-1.8959,-1.8929,-1.8997,-1.8952,-1.8959,-1.9002,-1.9015,-1.9026,-1.9029,-1.8871,0,0,0,0,0,-1.9051,-1.9063,-1.9036,-1.907,-1.9069,-1.9039,-1.9043,-1.902,-1.9012,-1.9009,-1.8994,-1.8989,-1.8999,-1.9006,-1.9013,-1.906,-1.9057,-1.9085,-1.9096,-1.9105,-1.9111,-1.914,-1.9153,-1.9011,-1.9011,-1.9011,0,0,-1.9091,-1.9076,-1.9086,-1.9084,-1.9076,-1.9092,-1.9037,-1.9054,-1.9066,-1.9012,-1.904,-1.9029,-1.9021,-1.906,-1.9076,-1.9053,-1.915,-1.9112,-1.9119,-1.9121,-1.9147,-1.9161,-1.9173,-1.9015,-1.9014,-1.9014,0,0,-1.9171,-1.916,-1.9189,-1.9183,-1.9173,-1.9153,-1.9161,-1.9142,-1.9133,-1.9159,-1.9121,-1.9135,-1.9151,-1.9149,-1.915,-1.9234,-1.9204,-1.9237,-1.9294,-1.9322,-1.9333,-1.9343,-1.9377,-1.9389,-1.9243,-1.9244,-1.9244,0,-1.9222,-1.9243,-1.9208,-1.9229,-1.9231,-1.9183,-1.9214,-1.921,-1.9203,-1.9207,-1.9181,-1.9204,-1.9195,-1.9235,-1.9256,-1.9257,-1.9267,-1.924,-1.9334,-1.9344,-1.9353,-1.9385,-1.9397,-1.9248,-1.9247,-1.9247,-1.9247,0,-1.9308,-1.9323,-1.9348,-1.9344,-1.9348,-1.9374,-1.9345,-1.9355,-1.9332,-1.9316,-1.9346,-1.9334,-1.934,-1.9347,-1.9324,-1.9386,-1.9373,-1.9341,-1.9295,-1.9371,-1.9401,-1.9412,-1.9254,-1.9253,-1.9251,-1.925,0,0,-1.943,-1.9408,-1.9418,-1.9417,-1.9404,-1.9416,-1.9441,-1.9447,-1.9458,-1.9455,-1.9478,-1.9495,-1.9467,-1.9469,-1.9445,-1.947,-1.9543,-1.9435,-1.9435,-1.9459,-1.9615,-1.9641,-1.9655,-1.9522,-1.9524,-1.9526,-1.9617,0,-1.951,-1.9551,-1.9522,-1.9569,-1.9585,-1.9542,-1.9564,-1.956,-1.9547,-1.956,-1.9545,-1.956,-1.9519,-1.9521,-1.9543,-1.9529,-1.9574,-1.9522,-1.9546,-1.9548,-1.9552,-1.967,-1.9696,-1.9782,-1.9627,-1.9629,-1.9631,0,-1.9607,-1.9611,-1.966,-1.9647,-1.9653,-1.9674,-1.9679,-1.9691,-1.9687,-1.9676,-1.9679,-1.9651,-1.9678,-1.9632,-1.9671,-1.9637,-1.9645,-1.964,-1.9643,-1.9646,-1.9595,-1.968,-1.9808,-1.9823,-1.9648,-1.9646,-1.9645,0,-1.9696,-1.9713,-1.9746,-1.9746,-1.9731,-1.9747,-1.9742,-1.9735,-1.9742,-1.9747,-1.9752,-1.976,-1.9766,-1.9774,-1.975,-1.9718,-1.9794,-1.9745,-1.9789,-1.979,-1.9808,-1.9808,-1.9944,-1.9809,-1.9809,-1.9808,-1.9808,0,-1.979,-1.9823,-1.9786,-1.9806,-1.9843,-1.981,-1.9849,-1.9839,-1.9834,-1.9854,-1.9816,-1.9836,-1.9801,-1.9819,-1.98,-1.9838,-1.9839,-1.9834,-1.9829,-1.9839,-1.984,-1.9846,-1.984,-1.9812,-1.9811,-1.981,-1.981,0,-1.9896,-1.9872,-1.9906,-1.989,-1.9887,-1.9915,-1.9902,-1.9922,-1.9907,-1.9933,-1.9937,-1.9914,-1.9933,-1.9909,-1.9925,-1.9913,-1.9966,-1.995,-1.9968,-1.9964,-2.0011,-2.0008,-2.0157,-2.0177,-2.0027,-2.0028,-2.0029,0,-1.9958,-1.9983,-1.997,-1.9981,-1.9978,-1.9995,-2.0003,-1.9972,-1.9982,-1.9981,-2.0002,-2.0018,-2.0029,-2.0061,-2.0047,-2.0061,-2.0048,-2.0099,-2.0049,-2.006,-2.0053,-2.0053,-2.0058,-2.011,-2.0112,-2.0113,-2.0114,0,-2.0073,-2.0061,-2.0073,-2.0082,-2.0092,-2.0098,-2.0101,-2.0112,-2.0081,-2.0094,-2.0113,-2.0122,-2.014,-2.0157,-2.0167,-2.0164,-2.0136,-2.013,-2.0142,-2.0153,-2.0164,-2.0163,-1.9999,-2.0127,-2.0126,-2.0125,-2.0124,-2.0124,-2.0162,-2.0183,-2.0179,-2.0195,-2.0194,-2.0198,-2.0218,-2.0206,-2.0221,-2.0233,-2.0214,-2.0239,-2.0238,-2.0249,-2.025,-2.0271,-2.0249,-2.0264,-2.0269,-2.0274,-2.0283,-2.0158,-2.0272,-2.0271,-2.0271,-2.0271,-2.027,0,-2.0278,-2.0274,-2.0288,-2.0294,-2.0308,-2.0279,-2.0282,-2.0296,-2.0318,-2.0319,-2.0331,-2.0356,-2.0373,-2.0361,-2.0377,-2.0397,-2.0385,-2.0402,-2.0402,-2.0403,-2.0299,-2.029,-2.0412,-2.0412,-2.0412,-2.0412,-2.0412,-2.0412,-2.034,-2.0377,-2.0365,-2.0402,-2.0397,-2.0421,-2.0426,-2.0431,-2.0433,-2.0461,-2.0476,-2.0468,-2.0465,-2.0481,-2.0497,-2.0494,-2.0503,-2.0526,-2.0519,-2.0423,-2.0409,-2.0396,-2.0387,-2.0528,-2.0528,-2.062,-2.0621,-2.0622]},{"header":{"parameterUnit":"m.s-1","parameterCategory":1,"la1":30.2991,"la2":30.254,"lo1":-89.0895,"lo2":-89.0444,"dy":0.0017,"dx":0.0017,"nx":28,"ny":28,"refTime":"2024-08-26T09:00:00:Z","depth":0,"parameterNumber":3,"parameterNumberName":"V-component_of_WINDS"},"data":[0,0,0,0,0,0,0,0,0,0,0,0,0,0,0,0,0,0,0,0,0,0,0,0,0,0,0,0,0,0,0,0,0,0,0,0,0,0,0,0,0,0,0,0,0,0,0,0,0,0,0,0,0,0,0,0,0,0,2.7761,2.7761,0,2.775,2.775,2.775,2.7766,2.7766,2.7767,2.7768,2.7752,2.7751,2.775,0,0,0,0,0,0,0,0,0,0,0,0,0,2.7791,2.779,2.7761,2.7761,2.7761,2.775,2.775,2.775,2.7766,2.7766,2.7767,2.7768,2.7752,2.7751,2.775,0,0,0,0,0,0,0,0,0,0,0,0,0,2.7779,2.779,2.7761,2.7767,2.7768,2.775,2.775,2.775,2.7766,2.7767,2.7767,2.7768,2.7753,2.7751,2.775,2.7724,0,0,2.7746,2.7745,0,0,0,0,0,0,0,0,2.7779,2.7777,2.7767,2.7767,2.7767,2.776,2.7755,2.7741,2.7765,2.7766,2.7768,2.7769,2.7754,2.7752,2.7748,2.7723,2.7723,2.7746,2.7745,2.7744,2.7744,0,0,0,0,0,0,0,2.778,2.7778,2.7756,2.7766,2.7767,2.7769,2.7769,2.7752,2.7755,2.7766,2.7767,2.7766,2.7754,2.775,2.7748,2.7722,2.7746,2.7744,2.7743,2.7743,2.7673,2.7672,0,0,0,0,0,0,2.7781,2.7779,2.7757,2.7756,2.7776,2.7768,2.7767,2.7762,2.7756,2.7755,2.7766,2.7767,2.7752,2.775,2.7748,2.7715,2.7744,2.7743,2.7742,2.7674,2.7673,2.7672,0,0,0,0,0,0,2.7781,2.7779,2.7757,2.7768,2.7765,2.7767,2.776,2.7761,2.7756,2.7755,2.7755,2.7761,2.7752,2.775,2.773,2.7715,2.7742,2.7741,2.7675,2.7674,2.7672,2.765,0,0,0,0,0,0,2.7782,2.7779,2.777,2.7767,2.7765,2.7741,2.7759,2.776,2.7755,2.7756,2.775,2.775,2.7753,2.7732,2.7728,2.7713,2.774,2.7677,2.7675,2.7673,2.7652,2.7648,2.7644,0,0,0,0,0,2.7783,2.7763,2.7769,2.7767,2.7754,2.774,2.7738,2.7743,2.7753,2.7743,2.7742,2.775,2.7718,2.7729,2.7726,2.771,2.7678,2.7675,2.7673,2.7654,2.7649,2.7645,0,0,0,0,0,0,2.7763,2.7763,2.777,2.7749,2.7744,2.7743,2.773,2.7738,2.7729,2.773,2.7736,2.7734,2.7712,2.771,2.7723,2.7683,2.7699,2.7696,2.7686,2.7681,2.7677,2.7677,2.7739,0,0,0,0,0,2.7756,2.7746,2.7747,2.7728,2.7726,2.7729,2.7723,2.7727,2.7721,2.7719,2.7717,2.771,2.7698,2.769,2.7679,2.7653,2.765,2.764,2.7636,2.7633,2.7629,2.7613,2.7607,2.7665,2.7665,2.7665,0,0,2.7741,2.7741,2.7734,2.7724,2.7721,2.7709,2.7727,2.7713,2.7703,2.7717,2.7697,2.7695,2.7688,2.7664,2.7654,2.7661,2.7613,2.763,2.7628,2.7626,2.761,2.7604,2.76,2.7663,2.7663,2.7663,0,0,2.7708,2.7708,2.7691,2.7688,2.7684,2.7686,2.7682,2.7679,2.7679,2.766,2.7669,2.7657,2.7637,2.7631,2.7625,2.7589,2.7595,2.7586,2.7565,2.7549,2.7544,2.754,2.7524,2.7519,2.7583,2.7583,2.7583,0,2.769,2.7673,2.7682,2.7667,2.7662,2.7675,2.7657,2.7654,2.7645,2.764,2.765,2.7624,2.762,2.7594,2.7585,2.7581,2.7575,2.7585,2.7544,2.754,2.7537,2.7522,2.7516,2.7581,2.7582,2.7582,2.7582,0,2.765,2.7638,2.7626,2.7618,2.7612,2.7596,2.76,2.7592,2.7597,2.7598,2.7577,2.7573,2.7561,2.7556,2.756,2.753,2.7534,2.7544,2.7559,2.753,2.7516,2.751,2.7579,2.758,2.758,2.7581,0,0,2.7601,2.76,2.7594,2.7591,2.7587,2.7577,2.7561,2.7551,2.7542,2.7537,2.7521,2.7504,2.7513,2.7507,2.7511,2.7497,2.7466,2.7508,2.7508,2.7498,2.7429,2.7419,2.7412,2.7471,2.747,2.7469,2.7428,0,2.7566,2.754,2.7547,2.752,2.7508,2.7521,2.7507,2.7502,2.7502,2.7491,2.749,2.7477,2.7491,2.7487,2.7475,2.7472,2.7451,2.7476,2.7454,2.7453,2.7452,2.7406,2.7395,2.7357,2.7423,2.7422,2.7422,0,2.7521,2.7514,2.7486,2.7484,2.7479,2.7466,2.7456,2.7446,2.744,2.7441,2.7434,2.7441,2.7423,2.7441,2.7414,2.7431,2.7423,2.742,2.7419,2.7414,2.7433,2.7397,2.7345,2.7338,2.7414,2.7414,2.7415,0,2.7484,2.7469,2.7449,2.7446,2.7444,2.7434,2.7432,2.7427,2.742,2.7411,2.7406,2.7395,2.7388,2.7378,2.738,2.7394,2.7352,2.7371,2.735,2.735,2.7338,2.7338,2.7281,2.7338,2.7338,2.7339,2.7339,0,2.7442,2.7424,2.7433,2.7421,2.74,2.7408,2.7387,2.7386,2.7382,2.7368,2.738,2.7366,2.7372,2.7358,2.736,2.7336,2.7334,2.7332,2.7332,2.7329,2.7329,2.7321,2.7322,2.7337,2.7337,2.7338,2.7338,0,2.7397,2.7403,2.7382,2.7382,2.7381,2.7365,2.7364,2.7352,2.7354,2.7336,2.7332,2.7334,2.7318,2.7321,2.7304,2.7305,2.7274,2.7279,2.7276,2.7276,2.7253,2.7254,2.7186,2.7177,2.7244,2.7243,2.7243,0,2.7368,2.7354,2.7353,2.7345,2.7343,2.7331,2.7323,2.7331,2.7323,2.7315,2.7303,2.7289,2.7278,2.7252,2.725,2.7236,2.7239,2.7216,2.7237,2.7233,2.7234,2.7234,2.7231,2.7211,2.721,2.721,2.7209,0,2.7315,2.7319,2.7309,2.73,2.7291,2.7284,2.7278,2.7271,2.7278,2.7267,2.7252,2.7244,2.7227,2.7211,2.7198,2.7194,2.7201,2.7203,2.7197,2.7192,2.7189,2.7187,2.7261,2.7204,2.7204,2.7205,2.7205,2.7205,2.7274,2.7262,2.7259,2.7247,2.7244,2.7238,2.7225,2.7226,2.7215,2.7202,2.7207,2.7189,2.7182,2.7166,2.7161,2.7145,2.7153,2.7145,2.7142,2.7139,2.7135,2.7195,2.7143,2.7143,2.7144,2.7144,2.7144,0,2.7219,2.7218,2.7208,2.7199,2.7189,2.7201,2.7194,2.7184,2.7169,2.7163,2.7152,2.7134,2.7119,2.7117,2.7102,2.709,2.7093,2.7085,2.7084,2.7083,2.713,2.7136,2.7083,2.7083,2.7083,2.7083,2.7083,2.7083,2.7189,2.7168,2.7171,2.7148,2.7147,2.713,2.7125,2.7119,2.7114,2.7094,2.7082,2.7082,2.7076,2.7061,2.7047,2.7047,2.7039,2.703,2.703,2.7074,2.708,2.7085,2.709,2.7029,2.7029,2.6983,2.6983,2.6983]}]]